| time (UTC) | temp F | wind direction | speed MPH | gust MPH | rain 1hr in | rain 24hr in | rain mn in | humidity % | barometer mb |
| 20260510160606 | 85 | 322 | 1.0 | 2.0 | 0.00 | 0.19 | 0.00 | 75 | 1016.4 |
| 20260510160106 | 85 | 322 | 1.0 | 5.0 | 0.00 | 0.19 | 0.00 | 75 | 1016.3 |
| 20260510155607 | 86 | 114 | 1.0 | 2.0 | 0.00 | 0.19 | 0.00 | 74 | 1016.4 |
| 20260510155108 | 85 | 128 | 3.0 | 5.0 | 0.00 | 0.19 | 0.00 | 75 | 1016.5 |
| 20260510154607 | 84 | 313 | 1.0 | 7.0 | 0.00 | 0.19 | 0.00 | 78 | 1016.5 |
| 20260510154107 | 85 | 313 | 0.0 | 3.0 | 0.00 | 0.19 | 0.00 | 77 | 1016.6 |
| 20260510153607 | 85 | 358 | 1.0 | 5.0 | 0.00 | 0.19 | 0.00 | 78 | 1016.6 |
| 20260510153107 | 84 | 330 | 2.0 | 5.0 | 0.00 | 0.19 | 0.00 | 79 | 1016.6 |
| 20260510151607 | 82 | 38 | 1.0 | 3.0 | 0.00 | 0.19 | 0.00 | 85 | 1016.6 |
| 20260510151107 | 81 | 323 | 3.0 | 8.0 | 0.00 | 0.19 | 0.00 | 89 | 1016.5 |
| 20260510150607 | 81 | 327 | 2.0 | 6.0 | 0.00 | 0.19 | 0.00 | 95 | 1016.5 |
| 20260510150106 | 80 | 35 | 0.0 | 2.0 | 0.00 | 0.19 | 0.00 | 97 | 1016.5 |
| 20260510145606 | 79 | 141 | 1.0 | 6.0 | 0.00 | 0.19 | 0.00 | 98 | 1016.5 |
| 20260510145107 | 80 | 107 | 0.0 | 2.0 | 0.00 | 0.19 | 0.00 | 98 | 1016.5 |
| 20260510144107 | 79 | 93 | 1.0 | 3.0 | 0.00 | 0.19 | 0.00 | 99 | 1016.4 |
| 20260510143607 | 79 | 119 | 1.0 | 5.0 | 0.00 | 0.19 | 0.00 | 99 | 1016.3 |
| 20260510143106 | 78 | 137 | 3.0 | 6.0 | 0.00 | 0.19 | 0.00 | 99 | 1016.4 |
| 20260510142607 | 78 | 229 | 1.0 | 3.0 | 0.00 | 0.19 | 0.00 | 99 | 1016.4 |
| 20260510142107 | 77 | 144 | 1.0 | 2.0 | 0.00 | 0.19 | 0.00 | 99 | 1016.4 |
| 20260510141607 | 78 | 136 | 3.0 | 3.0 | 0.00 | 0.19 | 0.00 | 99 | 1016.4 |
| 20260510141107 | 78 | 117 | 0.0 | 1.0 | 0.00 | 0.19 | 0.00 | 99 | 1016.2 |
| 20260510140107 | 77 | 110 | 1.0 | 5.0 | 0.00 | 0.19 | 0.00 | 99 | 1016.0 |
| 20260510135606 | 77 | 1 | 0.0 | 2.0 | 0.00 | 0.19 | 0.00 | 99 | 1016.0 |
| 20260510135106 | 77 | 96 | 0.0 | 2.0 | 0.00 | 0.19 | 0.00 | 99 | 1016.0 |
| 20260510134606 | 76 | 96 | 0.0 | 1.0 | 0.00 | 0.19 | 0.00 | 99 | 1016.0 |
| 20260510134107 | 76 | 119 | 2.0 | 2.0 | 0.00 | 0.19 | 0.00 | 99 | 1015.9 |
| 20260510133606 | 76 | 124 | 0.0 | 0.0 | 0.00 | 0.19 | 0.00 | 99 | 1015.8 |
| 20260510133107 | 76 | 125 | 0.0 | 1.0 | 0.00 | 0.19 | 0.00 | 99 | 1015.8 |
| 20260510132606 | 75 | 125 | 0.0 | 5.0 | 0.00 | 0.19 | 0.00 | 99 | 1015.8 |
| 20260510132107 | 75 | 149 | 1.0 | 5.0 | 0.00 | 0.19 | 0.00 | 99 | 1015.8 |
| 20260510130606 | 75 | 133 | 1.0 | 5.0 | 0.00 | 0.19 | 0.00 | 99 | 1015.6 |
| 20260510130107 | 75 | 122 | 0.0 | 2.0 | 0.00 | 0.19 | 0.00 | 99 | 1015.7 |
| 20260510125607 | 75 | 100 | 0.0 | 1.0 | 0.00 | 0.19 | 0.00 | 99 | 1015.7 |
| 20260510125106 | 74 | 100 | 1.0 | 1.0 | 0.00 | 0.19 | 0.00 | 99 | 1015.6 |
| 20260510124606 | 74 | 99 | 0.0 | 1.0 | 0.00 | 0.19 | 0.00 | 99 | 1015.5 |
| 20260510124106 | 74 | 99 | 0.0 | 0.0 | 0.00 | 0.19 | 0.00 | 99 | 1015.6 |
| 20260510123606 | 74 | 99 | 0.0 | 0.0 | 0.00 | 0.19 | 0.00 | 99 | 1015.5 |
| 20260510123107 | 74 | 99 | 0.0 | 0.0 | 0.00 | 0.19 | 0.00 | 99 | 1015.3 |
| 20260510122606 | 74 | 99 | 0.0 | 1.0 | 0.00 | 0.19 | 0.00 | 99 | 1015.3 |
| 20260510122106 | 73 | 99 | 0.0 | 0.0 | 0.00 | 0.19 | 0.00 | 99 | 1015.2 |
| 20260510121607 | 73 | 99 | 0.0 | 1.0 | 0.00 | 0.19 | 0.00 | 99 | 1015.2 |
| 20260510121106 | 73 | 100 | 0.0 | 0.0 | 0.00 | 0.19 | 0.00 | 99 | 1015.0 |
| 20260510120606 | 73 | 100 | 0.0 | 0.0 | 0.00 | 0.19 | 0.00 | 99 | 1015.0 |
| 20260510120106 | 73 | 100 | 0.0 | 0.0 | 0.00 | 0.19 | 0.00 | 99 | 1015.0 |
| 20260510115606 | 72 | 100 | 0.0 | 0.0 | 0.00 | 0.19 | 0.00 | 99 | 1015.0 |
| 20260510115106 | 72 | 100 | 0.0 | 0.0 | 0.00 | 0.19 | 0.00 | 99 | 1014.9 |
| 20260510114606 | 72 | 100 | 0.0 | 0.0 | 0.00 | 0.19 | 0.00 | 99 | 1014.8 |
| 20260510114106 | 71 | 100 | 0.0 | 0.0 | 0.00 | 0.19 | 0.00 | 99 | 1014.9 |
| 20260510113606 | 71 | 100 | 0.0 | 0.0 | 0.00 | 0.19 | 0.00 | 99 | 1014.8 |
| 20260510112606 | 71 | 100 | 0.0 | 0.0 | 0.00 | 0.19 | 0.00 | 99 | 1014.7 |
| 20260510111606 | 70 | 100 | 0.0 | 0.0 | 0.00 | 0.19 | 0.00 | 99 | 1014.5 |
| 20260510111105 | 70 | 100 | 0.0 | 0.0 | 0.00 | 0.19 | 0.00 | 99 | 1014.4 |
| 20260510110606 | 70 | 100 | 0.0 | 0.0 | 0.00 | 0.19 | 0.00 | 99 | 1014.4 |
| 20260510110107 | 70 | 100 | 0.0 | 0.0 | 0.00 | 0.19 | 0.00 | 99 | 1014.4 |
| 20260510105105 | 70 | 100 | 0.0 | 0.0 | 0.00 | 0.19 | 0.00 | 99 | 1014.3 |
| 20260510104606 | 70 | 100 | 0.0 | 0.0 | 0.00 | 0.19 | 0.00 | 99 | 1014.2 |
| 20260510103105 | 71 | 100 | 0.0 | 0.0 | 0.00 | 0.19 | 0.00 | 99 | 1013.9 |
| 20260510102606 | 71 | 100 | 0.0 | 0.0 | 0.00 | 0.19 | 0.00 | 99 | 1013.8 |
| 20260510102106 | 71 | 100 | 0.0 | 0.0 | 0.00 | 0.19 | 0.00 | 99 | 1013.8 |
| 20260510101605 | 71 | 100 | 0.0 | 0.0 | 0.00 | 0.19 | 0.00 | 99 | 1013.7 |
| 20260510101106 | 71 | 100 | 0.0 | 0.0 | 0.00 | 0.19 | 0.00 | 99 | 1013.6 |
| 20260510100606 | 71 | 100 | 0.0 | 0.0 | 0.00 | 0.19 | 0.00 | 99 | 1013.4 |
| 20260510100106 | 71 | 100 | 0.0 | 0.0 | 0.00 | 0.19 | 0.00 | 99 | 1013.5 |
| 20260510095606 | 71 | 100 | 0.0 | 0.0 | 0.00 | 0.19 | 0.00 | 99 | 1013.4 |
| 20260510095106 | 71 | 100 | 0.0 | 0.0 | 0.00 | 0.19 | 0.00 | 99 | 1013.5 |
| 20260510094606 | 71 | 100 | 0.0 | 0.0 | 0.00 | 0.19 | 0.00 | 99 | 1013.5 |
| 20260510094105 | 72 | 100 | 0.0 | 0.0 | 0.00 | 0.19 | 0.00 | 99 | 1013.4 |
| 20260510093606 | 72 | 100 | 0.0 | 0.0 | 0.00 | 0.19 | 0.00 | 99 | 1013.4 |
| 20260510093106 | 72 | 100 | 0.0 | 0.0 | 0.00 | 0.19 | 0.00 | 99 | 1013.4 |
| 20260510092606 | 72 | 100 | 0.0 | 0.0 | 0.00 | 0.19 | 0.00 | 99 | 1013.3 |
| 20260510092106 | 72 | 100 | 0.0 | 0.0 | 0.00 | 0.19 | 0.00 | 99 | 1013.3 |
| 20260510091105 | 72 | 100 | 0.0 | 1.0 | 0.00 | 0.19 | 0.00 | 99 | 1013.1 |
| 20260510090605 | 72 | 100 | 0.0 | 1.0 | 0.00 | 0.19 | 0.00 | 99 | 1013.0 |
| 20260510090105 | 72 | 100 | 0.0 | 2.0 | 0.00 | 0.19 | 0.00 | 99 | 1013.0 |
| 20260510085606 | 72 | 99 | 0.0 | 0.0 | 0.00 | 0.19 | 0.00 | 99 | 1013.0 |
| 20260510085105 | 72 | 99 | 0.0 | 1.0 | 0.00 | 0.19 | 0.00 | 99 | 1013.0 |
| 20260510084605 | 72 | 99 | 0.0 | 2.0 | 0.00 | 0.19 | 0.00 | 99 | 1012.9 |
| 20260510084105 | 72 | 78 | 0.0 | 0.0 | 0.00 | 0.19 | 0.00 | 99 | 1012.8 |
| 20260510083106 | 72 | 78 | 0.0 | 0.0 | 0.00 | 0.19 | 0.00 | 99 | 1012.7 |
| 20260510082606 | 72 | 78 | 0.0 | 0.0 | 0.00 | 0.19 | 0.00 | 99 | 1012.8 |
| 20260510082105 | 72 | 78 | 0.0 | 1.0 | 0.00 | 0.19 | 0.00 | 99 | 1012.7 |
| 20260510081606 | 72 | 78 | 0.0 | 1.0 | 0.00 | 0.19 | 0.00 | 99 | 1012.6 |
| 20260510081105 | 72 | 78 | 0.0 | 1.0 | 0.00 | 0.19 | 0.00 | 99 | 1012.7 |
| 20260510080606 | 72 | 78 | 0.0 | 1.0 | 0.00 | 0.19 | 0.00 | 99 | 1012.7 |
| 20260510080105 | 72 | 78 | 0.0 | 1.0 | 0.00 | 0.19 | 0.00 | 99 | 1012.7 |
| 20260510075605 | 72 | 65 | 0.0 | 0.0 | 0.00 | 0.19 | 0.00 | 99 | 1012.7 |
| 20260510075105 | 72 | 65 | 0.0 | 0.0 | 0.00 | 0.19 | 0.00 | 99 | 1012.6 |
| 20260510073605 | 72 | 65 | 0.0 | 0.0 | 0.00 | 0.19 | 0.00 | 99 | 1012.9 |
| 20260510073105 | 72 | 65 | 0.0 | 0.0 | 0.00 | 0.19 | 0.00 | 99 | 1012.9 |
| 20260510072605 | 72 | 65 | 0.0 | 0.0 | 0.00 | 0.19 | 0.00 | 99 | 1012.9 |
| 20260510072105 | 72 | 65 | 0.0 | 0.0 | 0.00 | 0.19 | 0.00 | 99 | 1013.0 |
| 20260510071605 | 72 | 65 | 0.0 | 0.0 | 0.00 | 0.19 | 0.00 | 99 | 1013.0 |
| 20260510071105 | 72 | 65 | 0.0 | 0.0 | 0.00 | 0.19 | 0.00 | 99 | 1013.0 |
| 20260510070105 | 72 | 65 | 0.0 | 0.0 | 0.00 | 0.19 | 0.00 | 99 | 1013.0 |
| 20260510065605 | 72 | 65 | 0.0 | 0.0 | 0.00 | 0.19 | 0.00 | 99 | 1013.0 |
| 20260510065105 | 72 | 65 | 0.0 | 0.0 | 0.00 | 0.19 | 0.00 | 99 | 1013.1 |
| 20260510064606 | 72 | 65 | 0.0 | 0.0 | 0.00 | 0.19 | 0.00 | 99 | 1013.3 |
| 20260510064105 | 72 | 65 | 0.0 | 0.0 | 0.00 | 0.19 | 0.00 | 99 | 1013.4 |
| 20260510063605 | 72 | 65 | 0.0 | 0.0 | 0.00 | 0.19 | 0.00 | 99 | 1013.5 |
| 20260510063105 | 72 | 65 | 0.0 | 0.0 | 0.00 | 0.19 | 0.00 | 99 | 1013.6 |
| 20260510062606 | 72 | 65 | 0.0 | 0.0 | 0.00 | 0.19 | 0.00 | 99 | 1013.7 |
| 20260510062104 | 72 | 65 | 0.0 | 0.0 | 0.00 | 0.19 | 0.00 | 99 | 1013.6 |
| 20260510061105 | 72 | 65 | 0.0 | 0.0 | 0.00 | 0.19 | 0.00 | 99 | 1013.9 |
| 20260510060605 | 72 | 65 | 0.0 | 0.0 | 0.00 | 0.19 | 0.00 | 99 | 1013.8 |
| 20260510060105 | 72 | 65 | 0.0 | 0.0 | 0.00 | 0.19 | 0.00 | 99 | 1013.9 |
| 20260510055605 | 72 | 65 | 0.0 | 0.0 | 0.00 | 0.19 | 0.00 | 99 | 1014.0 |
| 20260510054605 | 71 | 65 | 0.0 | 1.0 | 0.00 | 0.19 | 0.00 | 99 | 1014.1 |
| 20260510053606 | 71 | 318 | 0.0 | 0.0 | 0.00 | 0.19 | 0.00 | 99 | 1014.2 |
| 20260510052604 | 71 | 318 | 0.0 | 0.0 | 0.00 | 0.19 | 0.00 | 99 | 1014.3 |
| 20260510052105 | 71 | 318 | 0.0 | 0.0 | 0.00 | 0.19 | 0.00 | 99 | 1014.3 |
| 20260510051605 | 71 | 318 | 0.0 | 0.0 | 0.00 | 0.19 | 0.00 | 99 | 1014.3 |
| 20260510051106 | 71 | 318 | 0.0 | 0.0 | 0.00 | 0.19 | 0.00 | 99 | 1014.4 |
| 20260510050605 | 71 | 318 | 0.0 | 0.0 | 0.00 | 0.19 | 0.00 | 99 | 1014.5 |
| 20260510050105 | 71 | 318 | 0.0 | 0.0 | 0.00 | 0.19 | 0.00 | 99 | 1014.6 |
| 20260510045605 | 71 | 318 | 0.0 | 0.0 | 0.00 | 0.19 | 0.00 | 99 | 1014.7 |
| 20260510045104 | 71 | 318 | 0.0 | 0.0 | 0.00 | 0.19 | 0.00 | 99 | 1014.6 |
| 20260510044604 | 71 | 318 | 0.0 | 0.0 | 0.00 | 0.19 | 0.00 | 99 | 1014.6 |
| 20260510044104 | 71 | 318 | 0.0 | 0.0 | 0.00 | 0.19 | 0.00 | 99 | 1014.6 |
| 20260510043605 | 71 | 318 | 0.0 | 0.0 | 0.00 | 0.19 | 0.00 | 99 | 1014.7 |
| 20260510043105 | 71 | 318 | 0.0 | 0.0 | 0.00 | 0.19 | 0.00 | 99 | 1014.7 |
| 20260510042605 | 71 | 318 | 0.0 | 0.0 | 0.00 | 0.19 | 0.00 | 99 | 1014.8 |
| 20260510041604 | 71 | 318 | 0.0 | 0.0 | 0.00 | 0.19 | 0.00 | 99 | 1014.7 |
| 20260510041105 | 71 | 318 | 0.0 | 0.0 | 0.00 | 0.19 | 0.00 | 99 | 1014.6 |
| 20260510040604 | 72 | 318 | 0.0 | 0.0 | 0.00 | 0.19 | 0.00 | 99 | 1014.7 |
| 20260510040105 | 72 | 318 | 0.0 | 0.0 | 0.00 | 0.19 | 0.00 | 99 | 1014.6 |
| 20260510035605 | 72 | 318 | 0.0 | 0.0 | 0.00 | 0.19 | 0.19 | 99 | 1014.7 |
| 20260510035105 | 72 | 318 | 0.0 | 0.0 | 0.00 | 0.19 | 0.19 | 99 | 1014.8 |
| 20260510034605 | 72 | 318 | 0.0 | 0.0 | 0.00 | 0.19 | 0.19 | 99 | 1014.8 |
| 20260510034104 | 72 | 318 | 0.0 | 0.0 | 0.00 | 0.19 | 0.19 | 99 | 1014.8 |
| 20260510033104 | 72 | 318 | 0.0 | 0.0 | 0.00 | 0.19 | 0.19 | 99 | 1014.6 |
| 20260510032105 | 72 | 318 | 0.0 | 0.0 | 0.00 | 0.19 | 0.19 | 99 | 1014.6 |
| 20260510031604 | 72 | 318 | 0.0 | 0.0 | 0.00 | 0.19 | 0.19 | 99 | 1014.7 |
| 20260510031104 | 72 | 318 | 0.0 | 0.0 | 0.00 | 0.19 | 0.19 | 99 | 1014.8 |
| 20260510030104 | 72 | 318 | 0.0 | 0.0 | 0.00 | 0.19 | 0.19 | 99 | 1014.5 |
| 20260510025604 | 72 | 318 | 0.0 | 0.0 | 0.00 | 0.19 | 0.19 | 99 | 1014.6 |
| 20260510025104 | 72 | 318 | 0.0 | 0.0 | 0.00 | 0.19 | 0.19 | 99 | 1014.7 |
| 20260510023603 | 72 | 318 | 0.0 | 0.0 | 0.00 | 0.19 | 0.19 | 99 | 1014.3 |
| 20260510023104 | 72 | 318 | 0.0 | 0.0 | 0.00 | 0.19 | 0.19 | 99 | 1014.3 |
| 20260510022104 | 72 | 318 | 0.0 | 0.0 | 0.00 | 0.19 | 0.19 | 99 | 1014.3 |
| 20260510021604 | 72 | 318 | 0.0 | 0.0 | 0.00 | 0.19 | 0.19 | 99 | 1014.3 |
| 20260510021104 | 72 | 318 | 0.0 | 0.0 | 0.00 | 0.19 | 0.19 | 99 | 1014.2 |
| 20260510020604 | 72 | 318 | 0.0 | 0.0 | 0.00 | 0.19 | 0.19 | 99 | 1014.0 |
| 20260510015604 | 72 | 318 | 0.0 | 0.0 | 0.00 | 0.19 | 0.19 | 99 | 1014.0 |
| 20260510015104 | 72 | 318 | 0.0 | 0.0 | 0.00 | 0.19 | 0.19 | 99 | 1014.0 |
| 20260510014604 | 72 | 318 | 0.0 | 0.0 | 0.00 | 0.19 | 0.19 | 99 | 1013.6 |
| 20260510014104 | 72 | 318 | 0.0 | 0.0 | 0.00 | 0.19 | 0.19 | 99 | 1013.9 |
| 20260510013604 | 72 | 318 | 0.0 | 0.0 | 0.00 | 0.19 | 0.19 | 99 | 1013.8 |
| 20260510013104 | 72 | 318 | 0.0 | 0.0 | 0.00 | 0.19 | 0.19 | 99 | 1013.9 |
| 20260510012605 | 72 | 318 | 0.0 | 0.0 | 0.00 | 0.19 | 0.19 | 99 | 1013.7 |
| 20260510012104 | 72 | 318 | 0.0 | 0.0 | 0.00 | 0.19 | 0.19 | 99 | 1013.8 |
| 20260510011104 | 72 | 318 | 0.0 | 0.0 | 0.00 | 0.19 | 0.19 | 99 | 1013.7 |
| 20260510010609 | 72 | 318 | 0.0 | 0.0 | 0.00 | 0.19 | 0.19 | 99 | 1013.8 |
| 20260510005609 | 72 | 318 | 0.0 | 0.0 | 0.00 | 0.19 | 0.19 | 99 | 1013.7 |
| 20260510005108 | 72 | 318 | 0.0 | 0.0 | 0.00 | 0.19 | 0.19 | 99 | 1013.7 |
| 20260510004609 | 72 | 318 | 0.0 | 0.0 | 0.00 | 0.19 | 0.19 | 99 | 1013.7 |
| 20260510003608 | 72 | 318 | 0.0 | 0.0 | 0.00 | 0.19 | 0.19 | 99 | 1013.5 |
| 20260510003109 | 73 | 318 | 0.0 | 0.0 | 0.00 | 0.19 | 0.19 | 99 | 1013.5 |
| 20260510002609 | 73 | 318 | 0.0 | 0.0 | 0.00 | 0.19 | 0.19 | 99 | 1013.3 |
| 20260510002108 | 73 | 318 | 0.0 | 0.0 | 0.00 | 0.19 | 0.19 | 99 | 1013.3 |
| 20260510001608 | 73 | 318 | 0.0 | 0.0 | 0.00 | 0.19 | 0.19 | 99 | 1013.4 |
| 20260510001109 | 73 | 318 | 0.0 | 0.0 | 0.00 | 0.19 | 0.19 | 99 | 1013.3 |
| 20260510000609 | 73 | 318 | 0.0 | 0.0 | 0.00 | 0.19 | 0.19 | 99 | 1013.2 |
| 20260510000109 | 73 | 318 | 0.0 | 0.0 | 0.00 | 0.19 | 0.19 | 99 | 1013.0 |
| 20260509235109 | 73 | 318 | 0.0 | 0.0 | 0.00 | 0.19 | 0.19 | 99 | 1013.0 |
| 20260509234608 | 73 | 318 | 0.0 | 0.0 | 0.00 | 0.19 | 0.19 | 98 | 1012.9 |
| 20260509234109 | 73 | 318 | 0.0 | 0.0 | 0.00 | 0.19 | 0.19 | 98 | 1013.0 |
| 20260509233609 | 73 | 318 | 0.0 | 0.0 | 0.00 | 0.19 | 0.19 | 98 | 1013.0 |
| 20260509233108 | 73 | 318 | 0.0 | 0.0 | 0.00 | 0.19 | 0.19 | 99 | 1012.9 |
| 20260509232109 | 73 | 318 | 0.0 | 0.0 | 0.00 | 0.19 | 0.19 | 98 | 1012.9 |
| 20260509231609 | 73 | 318 | 0.0 | 0.0 | 0.00 | 0.19 | 0.19 | 98 | 1012.8 |
| 20260509231108 | 73 | 318 | 0.0 | 0.0 | 0.00 | 0.19 | 0.19 | 98 | 1012.8 |
| 20260509230108 | 73 | 318 | 0.0 | 0.0 | 0.00 | 0.19 | 0.19 | 98 | 1012.6 |
| 20260509225608 | 73 | 318 | 0.0 | 0.0 | 0.00 | 0.19 | 0.19 | 98 | 1012.6 |
| 20260509225108 | 73 | 318 | 0.0 | 0.0 | 0.00 | 0.19 | 0.19 | 98 | 1012.6 |
| 20260509224608 | 73 | 318 | 0.0 | 0.0 | 0.00 | 0.19 | 0.19 | 98 | 1012.5 |
| 20260509224108 | 73 | 318 | 0.0 | 0.0 | 0.00 | 0.20 | 0.19 | 98 | 1012.5 |
| 20260509223608 | 73 | 318 | 0.0 | 0.0 | 0.00 | 0.21 | 0.19 | 98 | 1012.5 |
| 20260509223107 | 73 | 318 | 0.0 | 0.0 | 0.00 | 0.23 | 0.19 | 98 | 1012.5 |
| 20260509222608 | 73 | 318 | 0.0 | 0.0 | 0.00 | 0.27 | 0.19 | 98 | 1012.5 |
| 20260509222109 | 73 | 318 | 0.0 | 0.0 | 0.00 | 0.28 | 0.19 | 98 | 1012.4 |
| 20260509221608 | 73 | 318 | 0.0 | 0.0 | 0.00 | 0.29 | 0.19 | 98 | 1012.4 |
| 20260509221109 | 73 | 318 | 0.0 | 0.0 | 0.00 | 0.29 | 0.19 | 98 | 1012.5 |
| 20260509220607 | 73 | 318 | 0.0 | 0.0 | 0.00 | 0.30 | 0.19 | 98 | 1012.5 |
| 20260509220108 | 73 | 318 | 0.0 | 0.0 | 0.00 | 0.36 | 0.19 | 98 | 1012.5 |
| 20260509215608 | 73 | 318 | 0.0 | 1.0 | 0.00 | 0.69 | 0.19 | 98 | 1012.5 |
| 20260509215108 | 73 | 318 | 0.0 | 1.0 | 0.00 | 0.83 | 0.19 | 98 | 1012.4 |
| 20260509214608 | 73 | 318 | 0.0 | 0.0 | 0.00 | 0.87 | 0.19 | 98 | 1012.5 |
| 20260509214107 | 73 | 318 | 0.0 | 1.0 | 0.00 | 0.90 | 0.19 | 98 | 1012.5 |
| 20260509213609 | 73 | 318 | 0.0 | 1.0 | 0.00 | 0.92 | 0.19 | 98 | 1012.4 |
| 20260509213108 | 72 | 318 | 0.0 | 1.0 | 0.00 | 0.92 | 0.19 | 98 | 1012.4 |
| 20260509212607 | 73 | 318 | 0.0 | 1.0 | 0.00 | 0.92 | 0.19 | 98 | 1012.5 |
| 20260509211607 | 73 | 318 | 0.0 | 1.0 | 0.00 | 0.92 | 0.19 | 98 | 1012.6 |
| 20260509211107 | 73 | 318 | 0.0 | 1.0 | 0.00 | 0.92 | 0.19 | 97 | 1012.5 |
| 20260509205607 | 74 | 316 | 0.0 | 0.0 | 0.02 | 0.92 | 0.19 | 98 | 1012.5 |
| 20260509205108 | 74 | 316 | 0.0 | 1.0 | 0.16 | 0.92 | 0.19 | 98 | 1012.4 |
| 20260509204608 | 74 | 316 | 1.0 | 2.0 | 0.19 | 0.92 | 0.19 | 98 | 1012.5 |
| 20260509204107 | 74 | 316 | 0.0 | 0.0 | 0.19 | 0.92 | 0.19 | 98 | 1012.4 |
| 20260509203607 | 73 | 316 | 0.0 | 0.0 | 0.19 | 0.92 | 0.19 | 98 | 1012.5 |
| 20260509202107 | 73 | 316 | 0.0 | 1.0 | 0.19 | 0.92 | 0.19 | 97 | 1012.2 |
| 20260509200108 | 73 | 9 | 3.0 | 8.0 | 0.18 | 0.91 | 0.18 | 93 | 1012.3 |
| 20260509195608 | 75 | 333 | 6.0 | 26.0 | 0.17 | 0.90 | 0.17 | 90 | 1012.0 |
| 20260509195108 | 80 | 315 | 8.0 | 17.0 | 0.03 | 0.76 | 0.03 | 82 | 1012.9 |
| 20260509194608 | 82 | 309 | 0.0 | 1.0 | 0.00 | 0.73 | 0.00 | 80 | 1012.2 |
| 20260509194108 | 82 | 309 | 0.0 | 3.0 | 0.00 | 0.73 | 0.00 | 77 | 1011.9 |
| 20260509193607 | 83 | 308 | 1.0 | 3.0 | 0.00 | 0.73 | 0.00 | 75 | 1012.2 |
| 20260509193108 | 84 | 308 | 1.0 | 3.0 | 0.00 | 0.73 | 0.00 | 72 | 1011.9 |
| 20260509192107 | 84 | 311 | 1.0 | 2.0 | 0.00 | 0.73 | 0.00 | 70 | 1011.5 |
| 20260509191608 | 84 | 311 | 1.0 | 3.0 | 0.00 | 0.73 | 0.00 | 69 | 1011.7 |
| 20260509191107 | 85 | 311 | 2.0 | 3.0 | 0.00 | 0.73 | 0.00 | 70 | 1011.7 |
| 20260509190608 | 85 | 320 | 2.0 | 3.0 | 0.00 | 0.73 | 0.00 | 68 | 1011.6 |
| 20260509190108 | 85 | 350 | 0.0 | 2.0 | 0.00 | 0.73 | 0.00 | 70 | 1011.8 |
| 20260509185607 | 85 | 350 | 2.0 | 5.0 | 0.00 | 0.73 | 0.00 | 68 | 1011.8 |
| 20260509185108 | 85 | 316 | 1.0 | 2.0 | 0.00 | 0.73 | 0.00 | 69 | 1012.0 |
| 20260509184607 | 86 | 315 | 2.0 | 5.0 | 0.00 | 0.73 | 0.00 | 68 | 1012.0 |
| 20260509183607 | 86 | 316 | 1.0 | 7.0 | 0.00 | 0.73 | 0.00 | 67 | 1012.1 |
| 20260509183107 | 86 | 307 | 3.0 | 5.0 | 0.00 | 0.73 | 0.00 | 67 | 1012.3 |
| 20260509182607 | 86 | 309 | 2.0 | 7.0 | 0.00 | 0.73 | 0.00 | 69 | 1012.4 |
| 20260509182107 | 87 | 311 | 3.0 | 6.0 | 0.00 | 0.73 | 0.00 | 68 | 1012.5 |
| 20260509181607 | 87 | 100 | 1.0 | 3.0 | 0.00 | 0.73 | 0.00 | 69 | 1012.5 |
| 20260509181108 | 86 | 11 | 1.0 | 3.0 | 0.00 | 0.73 | 0.00 | 71 | 1012.6 |
| 20260509180608 | 86 | 305 | 3.0 | 8.0 | 0.00 | 0.73 | 0.00 | 69 | 1012.6 |
| 20260509180107 | 86 | 335 | 2.0 | 5.0 | 0.00 | 0.73 | 0.00 | 69 | 1012.7 |
| 20260509175608 | 86 | 311 | 2.0 | 3.0 | 0.00 | 0.73 | 0.00 | 71 | 1012.7 |
| 20260509175107 | 86 | 322 | 1.0 | 3.0 | 0.00 | 0.73 | 0.00 | 70 | 1012.7 |
| 20260509174607 | 85 | 324 | 1.0 | 3.0 | 0.00 | 0.73 | 0.00 | 70 | 1012.8 |
| 20260509174107 | 86 | 352 | 1.0 | 3.0 | 0.00 | 0.73 | 0.00 | 69 | 1012.9 |
| 20260509173607 | 86 | 135 | 1.0 | 3.0 | 0.00 | 0.73 | 0.00 | 69 | 1012.8 |
| 20260509172607 | 85 | 1 | 0.0 | 3.0 | 0.00 | 0.73 | 0.00 | 71 | 1012.9 |
| 20260509172107 | 85 | 347 | 3.0 | 5.0 | 0.00 | 0.73 | 0.00 | 70 | 1012.9 |
| 20260509171606 | 85 | 321 | 2.0 | 3.0 | 0.00 | 0.73 | 0.00 | 70 | 1013.0 |
| 20260509171107 | 85 | 39 | 0.0 | 2.0 | 0.00 | 0.73 | 0.00 | 71 | 1013.1 |
| 20260509170607 | 85 | 66 | 0.0 | 2.0 | 0.00 | 0.73 | 0.00 | 73 | 1012.9 |
| 20260509170107 | 85 | 184 | 1.0 | 2.0 | 0.00 | 0.73 | 0.00 | 71 | 1012.9 |
| 20260509165607 | 85 | 110 | 0.0 | 6.0 | 0.00 | 0.73 | 0.00 | 73 | 1012.9 |
| 20260509164607 | 84 | 31 | 1.0 | 8.0 | 0.00 | 0.73 | 0.00 | 74 | 1012.9 |
| 20260509164107 | 84 | 336 | 0.0 | 3.0 | 0.00 | 0.73 | 0.00 | 75 | 1013.1 |
| 20260509163106 | 84 | 334 | 0.0 | 3.0 | 0.00 | 0.73 | 0.00 | 76 | 1012.9 |
| 20260509162607 | 84 | 344 | 1.0 | 3.0 | 0.00 | 0.73 | 0.00 | 76 | 1013.0 |
| 20260509162107 | 84 | 322 | 0.0 | 5.0 | 0.00 | 0.73 | 0.00 | 78 | 1013.0 |
| 20260509161607 | 83 | 316 | 0.0 | 3.0 | 0.00 | 0.73 | 0.00 | 79 | 1013.0 |
| 20260509161106 | 84 | 314 | 0.0 | 1.0 | 0.00 | 0.73 | 0.00 | 78 | 1013.1 |